This is the latest recevied weather packets stored in our database for station/object N8TWM-13. If no packets are shown the sender has not sent any weather packets the latest 10 day(s).
| Time | Temp. | Humidity | Pressure | Rain* | Wind** | Luminosity | Snow |
|---|---|---|---|---|---|---|---|
| 1777638035 | 6.67° C | 89% | 1012.2 hPa | 0 mm | - | 17 W/m² | - |
| 1777637732 | 6.11° C | 88% | 1012.2 hPa | 0 mm | - | 14 W/m² | - |
| 1777637428 | 6.67° C | 88% | 1012.1 hPa | 0 mm | - | 16 W/m² | - |
| 1777637126 | 6.67° C | 88% | 1012 hPa | 0 mm | - | 14 W/m² | - |
| 1777636822 | 6.67° C | 87% | 1012.1 hPa | 0 mm | - | 14 W/m² | - |
| 1777636518 | 6.11° C | 87% | 1012 hPa | 0 mm | - | 10 W/m² | - |
| 1777636215 | 6.11° C | 86% | 1012.2 hPa | 0 mm | - | 6 W/m² | - |
| 1777635915 | 6.67° C | 86% | 1012.3 hPa | 0 mm | - | 5 W/m² | - |
| 1777635611 | 6.11° C | 86% | 1012.4 hPa | 0 mm | - | 5 W/m² | - |
| 1777635308 | 6.11° C | 86% | 1012.4 hPa | 0 mm | - | 5 W/m² | - |
| 1777635005 | 6.67° C | 86% | 1012.4 hPa | 0 mm | - | 11 W/m² | - |
| 1777634701 | 6.67° C | 86% | 1012.5 hPa | 0 mm | - | 20 W/m² | - |
| 1777634399 | 6.11° C | 86% | 1012.2 hPa | 0 mm | - | 30 W/m² | - |
| 1777634095 | 6.11° C | 86% | 1012.3 hPa | 0 mm | - | 20 W/m² | - |
| 1777633792 | 6.67° C | 87% | 1012.7 hPa | 0 mm | - | 10 W/m² | - |
| 1777633490 | 6.67° C | 86% | 1012.7 hPa | 0 mm | - | 4 W/m² | - |
| 1777633187 | 6.67° C | 85% | 1012.5 hPa | 0 mm | - | 3 W/m² | - |
| 1777632884 | 6.67° C | 85% | 1012.8 hPa | 0 mm | - | 2 W/m² | - |
| 1777632580 | 6.67° C | 84% | 1012.6 hPa | 0 mm | - | 6 W/m² | - |
| 1777632278 | 6.67° C | 85% | 1012.7 hPa | 0 mm | - | 1 W/m² | - |
| 1777631974 | 6.67° C | 83% | 1012.5 hPa | 0 mm | - | 0 W/m² | - |
| 1777631672 | 6.67° C | 83% | 1012.5 hPa | 0 mm | - | 0 W/m² | - |
| 1777631369 | 6.67° C | 83% | 1012.6 hPa | 0 mm | - | 0 W/m² | - |
| 1777631067 | 6.67° C | 83% | 1012.6 hPa | 0 mm | - | 0 W/m² | - |
| 1777630762 | 6.67° C | 83% | 1012.6 hPa | 0 mm | - | 0 W/m² | - |
* Rain latest hour (hover to see other rain measurements)
** Current wind speed in m/s (hover to see current wind gust speed)